Location: Northcutt
(34.7304°N, 84.4305°W)
Time: 10:45:18
(UTC+00:00)

A-11 Canister half - Pass Details

Date: 05 October 2022
Orbit: 1524 x 1685 km, 47.3° (Epoch: 30 November)

Event Time Altitude Azimuth Distance (km) Brightness Sun altitude
Rises 00:59:09 0° 301° (WNW) 4,694 12.7 -21.7°
Reaches altitude 10° 01:02:19 10° 307° (NW) 3,724 11.9 -22.3°
Maximum altitude 01:11:27 51° 22° (NNE) 1,916 9.3 -24.2°
Enters shadow 01:15:11 36° 73° (ENE) 2,339 9.5 -24.9°
Drops below altitude 10° 01:20:51 10° 96° (E) 3,834 - -26.0°
Sets 01:24:10 0° 102° (ESE) 4,842 - -26.7°
